Regional Weather Roundup
Issued by NWS State College, PA

Home | Current Version | Previous Version | Graphics & Text | Print | Product List | Glossary Off
Versions: 1 2 3 4 5 6 7 8 9 10 11 12 13 14 15 16 17 18 19 20 21 22 23 24 25 26 27 28 29 30 31 32 33 34 35 36 37 38 39 40 41 42 43 44 45 46 47 48 49 50

000
ASUS41 KCTP 230710
RWRCTP

REGIONAL WEATHER ROUNDUP
NATIONAL WEATHER SERVICE STATE COLLEGE PA
200 AM EST TUE JAN 23 2018

Note: "fair" indicates few or no clouds below 12,000 feet with no
significant weather and/or obstructions to visibility.

* = STATION THAT DOES NOT REPORT PRECIPITATION /E.G. RAIN...SNOW...ETC/
    THUNDER OR FOG.

PAZ002>004-007>009-013>016-020>023-029>032-230800-
WESTERN PENNSYLVANIA

CITY           SKY/WX    TMP DP  RH WIND       PRES   REMARKS
ERIE           TSTM     N/A N/A N/A W25G45    29.60R
MEADVILLE      CLOUDY    52  43  71 S5        29.54F
FRANKLIN*      MOCLDY    50  43  77 S15G21    29.57F
NEW CASTLE     CLOUDY    55  45  68 VRB6      29.57S
BEAVER COUNTY  NOT AVBL
BUTLER*        CLOUDY    54  43  66 SE9       29.58F
PITTSBURGH INT FAIR      53  43  68 S8        29.56F
PITTSBURGH     FAIR      55  42  61 S9G22     29.58F
INDIANA*       CLEAR     54  43  66 S14       29.67F
LATROBE        FAIR      57  43  58 SE13G20   29.62F
WASHINGTON CO* FAIR      55  44  66 S9        29.59F
$$

PAZ004>006-010>012-017>019-024>028-033>037-041-042-045-046-049>053-230800-
CENTRAL PENNSYLVANIA

CITY           SKY/WX    TMP DP  RH WIND       PRES   REMARKS
BRADFORD       MOCLDY    45  43  93 SE14G22   29.65F
DUBOIS           N/A    N/A N/A N/A MISG      29.64F
CLEARFIELD     CLOUDY    47  44  90 CALM      29.71F
JOHNSTOWN      FAIR      49  41  74 S21       29.67F
ALTOONA        FAIR      51  42  71 S12G22    29.75F
STATE COLLEGE  CLOUDY    47  43  85 S7        29.76F
WILLIAMSPORT   LGT RAIN  47  42  83 SE14      29.78F
SELINSGROVE    CLOUDY    37  36  96 CALM      29.81F FOG
FT INDIANTOWN  LGT RAIN  43  43 100 E6        29.87F
CAPITAL CITY   LGT RAIN  52  43  71 SE8       29.84F
HARRISBURG     LGT RAIN  49  43  80 E8        29.83F
YORK           LGT RAIN  50  44  80 VRB3      29.84F
$$

PAZ038>040-043-044-047-048-054-055-060>062-067>071-230800-
EASTERN PENNSYLVANIA

CITY           SKY/WX    TMP DP  RH WIND       PRES   REMARKS
SCRANTON       FAIR      43  38  82 CALM      29.86S
MOUNT POCONO   FOG       36  36 100 E10       29.88F VSB 1/4
ALLENTOWN      MOCLDY    38  34  85 NE7       29.92F FOG
QUAKERTOWN*    NOT AVBL
READING        CLOUDY    40  39  97 N5        29.88F
LANCASTER      CLOUDY    45  42  89 CALM      29.87F
COATESVILLE    FAIR      46  41  81 S8        29.90F
POTTSTOWN      MOCLDY    39  37  92 CALM      29.92F
BLUE BELL      FAIR      34  34 100 CALM      29.94F
DOYLESTOWN     FAIR      38  36  92 VRB3      29.93F
WILLOW GROVE   NOT AVBL
NORTH PHILA    FAIR      40  35  83 NE6       29.95F
PHILADELPHIA   FAIR      51  42  71 S10       29.93F
$$




USA.gov is the U.S. government's official web portal to all federal, state and local government web resources and services.